N5SRF Weather Reports


Display with metric or nautical units.
time (UTC)temp
F
wind
direction
speed
MPH
gust
MPH
rain 1hr
in
rain 24hr
in
rain mn
in
humidity
%
barometer
mb
20260503032726 56 229 0.0 0.0 0.00 0.00 0.00 91 1024.7
20260503032224 56 229 0.0 0.0 0.00 0.00 0.00 91 1024.6
20260503031720 56 229 0.0 0.0 0.00 0.00 0.00 91 1024.6
20260503031219 57 229 0.0 0.0 0.00 0.00 0.00 91 1024.4
20260503030714 57 229 1.0 1.0 0.00 0.00 0.00 91 1024.6
20260503030210 57 229 0.0 1.0 0.00 0.00 0.00 90 1024.4
20260503025708 57 230 0.0 0.0 0.00 0.00 0.00 89 1024.5
20260503025206 57 230 0.0 0.0 0.00 0.00 0.00 89 1024.6
20260503024701 57 230 0.0 0.0 0.00 0.00 0.00 88 1024.4
20260503024159 58 230 0.0 0.0 0.00 0.00 0.00 87 1024.3
20260503023656 58 230 0.0 0.0 0.00 0.00 0.00 87 1023.9
20260503023152 58 230 0.0 0.0 0.00 0.00 0.00 87 1024.0
20260503022649 58 230 0.0 0.0 0.00 0.00 0.00 85 1024.0
20260503022148 59 230 0.0 0.0 0.00 0.00 0.00 84 1023.9
20260503021645 59 230 0.0 0.0 0.00 0.00 0.00 84 1024.0
20260503021142 59 230 0.0 0.0 0.00 0.00 0.00 83 1024.0
20260503020639 59 230 0.0 0.0 0.00 0.00 0.00 81 1023.7
20260503020137 60 230 0.0 0.0 0.00 0.00 0.00 79 1023.6
20260503015633 60 230 0.0 0.0 0.00 0.00 0.00 79 1023.5
20260503015130 61 230 0.0 0.0 0.00 0.00 0.00 78 1023.6
20260503014626 62 230 0.0 0.0 0.00 0.00 0.00 76 1023.4
20260503014124 62 230 0.0 0.0 0.00 0.00 0.00 75 1023.5
20260503013621 63 230 0.0 0.0 0.00 0.00 0.00 73 1023.4
20260503013119 64 230 0.0 0.0 0.00 0.00 0.00 72 1023.4
20260503012616 64 230 0.0 0.0 0.00 0.00 0.00 70 1023.4
20260503012113 65 230 0.0 0.0 0.00 0.00 0.00 69 1023.1
20260503011609 65 230 0.0 0.0 0.00 0.00 0.00 68 1023.4
20260503011107 65 230 0.0 0.0 0.00 0.00 0.00 67 1023.4
20260503010602 66 230 0.0 0.0 0.00 0.00 0.00 67 1023.1
20260503010100 66 230 0.0 0.0 0.00 0.00 0.00 66 1023.2
20260503005557 66 230 0.0 0.0 0.00 0.00 0.00 65 1023.1
20260503005054 67 230 0.0 0.0 0.00 0.00 0.00 64 1023.0
20260503004550 67 230 0.0 0.0 0.00 0.00 0.00 64 1022.9
20260503004049 67 230 0.0 0.0 0.00 0.00 0.00 63 1022.9
20260503003545 68 230 0.0 0.0 0.00 0.00 0.00 62 1022.6
20260503003042 68 230 0.0 0.0 0.00 0.00 0.00 62 1022.7
20260503002539 69 230 0.0 0.0 0.00 0.00 0.00 61 1022.4
20260503002036 69 230 0.0 0.0 0.00 0.00 0.00 60 1022.6
20260503001532 70 230 0.0 0.0 0.00 0.00 0.00 58 1022.7
20260503001030 70 231 1.0 1.0 0.00 0.00 0.00 58 1022.3
20260503000527 70 73 2.0 2.0 0.00 0.00 0.00 56 1022.6
20260503000024 71 96 0.0 0.0 0.00 0.00 0.00 56 1022.4
20260502235520 72 96 0.0 0.0 0.00 0.00 0.00 53 1022.6
20260502235019 72 85 2.0 2.0 0.00 0.00 0.00 52 1022.5
20260502234514 72 296 2.0 2.0 0.00 0.00 0.00 52 1022.3
20260502234012 72 88 3.0 3.0 0.00 0.00 0.00 51 1022.2
20260502233507 73 154 1.0 2.0 0.00 0.00 0.00 52 1022.3
20260502233004 73 78 2.0 2.0 0.00 0.00 0.00 53 1022.5
20260502232501 73 139 1.0 1.0 0.00 0.00 0.00 51 1022.4
20260502231957 74 261 1.0 1.0 0.00 0.00 0.00 50 1022.5
20260502231455 74 333 3.0 3.0 0.00 0.00 0.00 49 1022.4
20260502230953 75 350 3.0 3.0 0.00 0.00 0.00 51 1022.6
20260502230450 75 80 1.0 1.0 0.00 0.00 0.00 51 1022.3
20260502225948 74 38 3.0 3.0 0.00 0.00 0.00 50 1022.2
20260502225444 73 70 1.0 1.0 0.00 0.00 0.00 50 1022.6
20260502224941 74 253 2.0 2.0 0.00 0.00 0.00 50 1022.5
20260502224437 75 212 0.0 0.0 0.00 0.00 0.00 51 1022.7
20260502223934 75 107 0.0 1.0 0.00 0.00 0.00 49 1022.6
20260502223432 77 188 0.0 1.0 0.00 0.00 0.00 47 1022.7
20260502222930 77 234 2.0 2.0 0.00 0.00 0.00 47 1022.5
20260502222427 77 265 1.0 2.0 0.00 0.00 0.00 46 1022.5
20260502221922 76 239 1.0 1.0 0.00 0.00 0.00 46 1022.5
20260502221419 77 286 2.0 2.0 0.00 0.00 0.00 48 1022.7
20260502220917 76 268 1.0 2.0 0.00 0.00 0.00 48 1022.7
20260502220412 76 329 2.0 2.0 0.00 0.00 0.00 49 1022.5
20260502215909 77 322 5.0 6.0 0.00 0.00 0.00 46 1022.5
20260502215407 77 312 4.0 6.0 0.00 0.00 0.00 47 1022.5
20260502214903 76 128 1.0 2.0 0.00 0.00 0.00 48 1022.7
20260502214400 75 70 3.0 5.0 0.00 0.00 0.00 50 1022.9
20260502213857 76 329 8.0 10.0 0.00 0.00 0.00 46 1022.8
20260502213354 77 212 1.0 1.0 0.00 0.00 0.00 47 1022.4
20260502212853 77 359 3.0 3.0 0.00 0.00 0.00 48 1022.5
20260502212351 77 339 3.0 3.0 0.00 0.00 0.00 48 1022.5
20260502211848 76 289 1.0 2.0 0.00 0.00 0.00 49 1022.6
20260502211343 75 315 3.0 3.0 0.00 0.00 0.00 50 1022.6
20260502210841 75 220 3.0 5.0 0.00 0.00 0.00 50 1022.8
20260502210338 75 272 4.0 6.0 0.00 0.00 0.00 48 1023.0
20260502205835 75 314 3.0 3.0 0.00 0.00 0.00 50 1022.7
20260502205331 75 185 1.0 3.0 0.00 0.00 0.00 50 1022.7
20260502204828 75 9 1.0 2.0 0.00 0.00 0.00 48 1022.8
20260502204326 75 46 1.0 2.0 0.00 0.00 0.00 49 1023.2
20260502203823 75 331 3.0 6.0 0.00 0.00 0.00 49 1023.0
20260502203320 75 167 1.0 1.0 0.00 0.00 0.00 48 1023.1
20260502202815 75 283 4.0 6.0 0.00 0.00 0.00 48 1023.1
20260502202313 75 2 4.0 5.0 0.00 0.00 0.00 48 1023.1
20260502201811 75 15 3.0 3.0 0.00 0.00 0.00 49 1023.2
20260502201307 75 42 3.0 3.0 0.00 0.00 0.00 49 1023.2
20260502200803 75 312 4.0 5.0 0.00 0.00 0.00 49 1023.3
20260502200259 75 335 6.0 8.0 0.00 0.00 0.00 49 1023.2
20260502195757 75 319 3.0 3.0 0.00 0.00 0.00 51 1023.4
20260502195253 75 30 3.0 5.0 0.00 0.00 0.00 53 1023.4
20260502194750 74 345 2.0 2.0 0.00 0.00 0.00 51 1023.8
20260502194247 74 18 2.0 3.0 0.00 0.00 0.00 52 1023.7
20260502193743 73 270 3.0 5.0 0.00 0.00 0.00 54 1023.7
20260502193241 74 339 3.0 6.0 0.00 0.00 0.00 51 1023.8
20260502192741 73 28 3.0 3.0 0.00 0.00 0.00 55 1023.8
20260502192238 73 326 6.0 7.0 0.00 0.00 0.00 50 1023.8
20260502191735 73 61 2.0 5.0 0.00 0.00 0.00 50 1023.9
20260502191233 73 50 3.0 5.0 0.00 0.00 0.00 52 1024.0
20260502190730 73 323 6.0 8.0 0.00 0.00 0.00 50 1023.9
20260502190228 73 52 3.0 5.0 0.00 0.00 0.00 52 1024.2
20260502185727 74 237 3.0 6.0 0.00 0.00 0.00 52 1024.2
20260502185224 73 144 2.0 2.0 0.00 0.00 0.00 54 1024.2
20260502184721 73 76 2.0 3.0 0.00 0.00 0.00 56 1024.4
20260502184216 73 324 4.0 6.0 0.00 0.00 0.00 55 1024.2
20260502183713 73 310 4.0 6.0 0.00 0.00 0.00 58 1024.2
20260502183209 73 317 3.0 3.0 0.00 0.00 0.00 53 1024.4
20260502182704 72 325 5.0 7.0 0.00 0.00 0.00 56 1024.2
20260502182200 71 324 4.0 5.0 0.00 0.00 0.00 56 1024.3
20260502181657 72 359 5.0 6.0 0.00 0.00 0.00 54 1024.6
20260502181156 71 162 4.0 5.0 0.00 0.00 0.00 55 1024.4
20260502180653 72 337 4.0 5.0 0.00 0.00 0.00 57 1024.5
20260502180150 71 359 2.0 2.0 0.00 0.00 0.00 58 1024.5
20260502170114 71 34 2.0 2.0 0.00 0.00 0.00 64 1025.1
20260502164101 69 8 5.0 6.0 0.00 0.00 0.00 67 1025.3
20260502163556 69 7 4.0 5.0 0.00 0.00 0.00 66 1025.1
20260502163054 68 314 4.0 5.0 0.00 0.00 0.00 70 1025.2
20260502162550 68 2 4.0 5.0 0.00 0.00 0.00 69 1025.4
20260502162048 68 13 5.0 8.0 0.00 0.00 0.00 71 1025.0
20260502161544 68 68 4.0 6.0 0.00 0.00 0.00 72 1025.1
20260502161042 68 340 3.0 3.0 0.00 0.00 0.00 73 1025.2
20260502160540 68 166 3.0 3.0 0.00 0.00 0.00 71 1025.3
20260502151953 65 19 5.0 7.0 0.00 0.00 0.00 78 1025.3
20260502151449 65 90 2.0 2.0 0.00 0.00 0.00 79 1025.1
20260502150947 65 38 4.0 6.0 0.00 0.00 0.00 81 1025.3
20260502150444 64 118 1.0 2.0 0.00 0.00 0.00 81 1025.0
20260502130329 59 11 3.0 5.0 0.00 0.00 0.00 89 1023.3
20260502123815 58 150 1.0 1.0 0.00 0.00 0.00 92 1023.0
20260502123312 58 216 1.0 1.0 0.00 0.00 0.00 93 1023.2
20260502122809 57 347 3.0 3.0 0.00 0.00 0.00 94 1023.2
20260502122306 57 98 2.0 3.0 0.00 0.00 0.00 95 1023.0
20260502121803 56 274 2.0 3.0 0.00 0.00 0.00 96 1023.2
20260502121300 56 290 2.0 2.0 0.00 0.00 0.00 97 1023.0
20260502120757 56 228 3.0 3.0 0.00 0.00 0.00 97 1023.0
20260502120254 55 113 2.0 2.0 0.00 0.00 0.00 98 1022.9
20260502115752 55 110 3.0 3.0 0.00 0.00 0.00 98 1022.9
20260502115248 55 3 3.0 3.0 0.00 0.00 0.00 98 1022.6
20260502114744 54 76 3.0 3.0 0.00 0.00 0.00 98 1022.6
20260502114241 54 226 2.0 2.0 0.00 0.00 0.00 98 1022.5
20260502113738 54 129 2.0 5.0 0.00 0.00 0.00 98 1022.5
20260502113236 54 99 1.0 2.0 0.00 0.00 0.00 98 1022.2
20260502112734 54 147 1.0 1.0 0.00 0.00 0.00 98 1022.2
20260502112231 54 45 3.0 3.0 0.00 0.00 0.00 98 1022.1
20260502111728 54 315 2.0 2.0 0.00 0.00 0.00 98 1022.2
20260502111226 54 79 1.0 2.0 0.00 0.00 0.00 98 1022.0
20260502110723 54 129 1.0 1.0 0.00 0.00 0.00 98 1022.1
20260502110221 54 68 2.0 2.0 0.00 0.00 0.00 98 1021.9
20260502105719 54 106 2.0 2.0 0.00 0.00 0.00 98 1022.0
20260502105215 54 162 1.0 1.0 0.00 0.00 0.00 98 1022.1
20260502104713 54 147 1.0 1.0 0.00 0.00 0.00 98 1022.0
20260502104210 54 200 0.0 1.0 0.00 0.00 0.00 98 1022.0
20260502103707 54 69 2.0 2.0 0.00 0.00 0.00 98 1022.1
20260502103205 54 113 1.0 1.0 0.00 0.00 0.00 98 1021.9
20260502102701 54 32 3.0 5.0 0.00 0.00 0.00 98 1022.1
20260502102158 54 81 1.0 1.0 0.00 0.00 0.00 98 1022.0
20260502101656 54 98 3.0 5.0 0.00 0.00 0.00 98 1021.9
20260502101154 54 23 3.0 3.0 0.00 0.00 0.00 98 1021.7
20260502100652 54 60 1.0 1.0 0.00 0.00 0.00 98 1021.8
20260502100150 54 138 1.0 1.0 0.00 0.00 0.00 98 1021.9
20260502091124 54 44 4.0 6.0 0.00 0.00 0.00 98 1021.1
20260502090621 54 21 2.0 3.0 0.00 0.00 0.00 97 1021.1
20260502090119 54 35 3.0 3.0 0.00 0.00 0.00 97 1020.9
20260502071516 53 84 1.0 1.0 0.00 0.00 0.00 99 1020.3
20260502071014 53 157 1.0 1.0 0.00 0.00 0.00 99 1020.4
20260502070512 53 141 1.0 1.0 0.00 0.00 0.00 99 1020.6
20260502070010 53 148 1.0 1.0 0.00 0.00 0.00 99 1020.5
20260502065508 53 141 1.0 1.0 0.00 0.00 0.00 99 1020.6
20260502065006 53 159 0.0 1.0 0.00 0.00 0.00 99 1020.5
20260502064504 53 127 1.0 1.0 0.00 0.00 0.00 99 1020.5
20260502064000 53 138 1.0 1.0 0.00 0.00 0.00 99 1020.5
20260502063459 53 111 1.0 2.0 0.00 0.00 0.00 99 1020.6
20260502062955 53 73 2.0 2.0 0.00 0.00 0.00 99 1020.6
20260502062452 53 99 1.0 1.0 0.00 0.00 0.00 99 1020.4
20260502061951 53 339 3.0 3.0 0.00 0.00 0.00 99 1020.6
20260502061449 53 1 3.0 3.0 0.00 0.00 0.00 99 1020.7
20260502060944 53 152 0.0 1.0 0.00 0.00 0.00 99 1020.6
20260502060440 53 105 1.0 1.0 0.00 0.00 0.00 99 1020.8
20260502055937 53 31 2.0 5.0 0.00 2.57 2.57 99 1020.7
20260502055435 53 61 2.0 3.0 0.00 2.57 2.57 99 1020.8
20260502054929 53 69 2.0 2.0 0.00 2.57 2.57 99 1020.9
20260502054427 53 165 1.0 2.0 0.00 2.57 2.57 99 1020.9
20260502053924 53 133 0.0 1.0 0.00 2.57 2.57 99 1020.7
20260502053421 54 150 2.0 2.0 0.00 2.57 2.57 99 1020.9
20260502052918 53 50 3.0 3.0 0.00 2.57 2.57 99 1020.9
20260502052416 53 109 1.0 2.0 0.00 2.57 2.57 99 1020.9
20260502051914 53 148 2.0 2.0 0.00 2.57 2.57 99 1021.0
20260502051412 53 75 7.0 8.0 0.00 2.57 2.57 99 1020.8
20260502050909 53 42 2.0 2.0 0.00 2.57 2.57 99 1020.7
20260502050405 53 58 4.0 5.0 0.00 2.57 2.57 99 1020.5
20260502045903 53 64 3.0 3.0 0.00 2.57 2.57 99 1020.9
20260502045359 53 119 1.0 1.0 0.00 2.57 2.57 99 1020.9
20260502044856 53 135 2.0 2.0 0.00 2.57 2.57 99 1021.2
20260502044352 53 129 1.0 2.0 0.00 2.57 2.57 99 1021.0
20260502043849 53 39 3.0 3.0 0.00 2.57 2.57 99 1021.0
20260502043347 53 44 3.0 3.0 0.00 2.57 2.57 99 1021.0
20260502042846 53 71 5.0 7.0 0.00 2.57 2.57 99 1021.1
20260502042344 52 283 2.0 2.0 0.00 2.57 2.57 99 1021.0
20260502041841 53 25 3.0 5.0 0.00 2.57 2.57 99 1021.2
20260502041338 53 67 2.0 2.0 0.00 2.57 2.57 99 1021.0
20260502040835 53 119 1.0 1.0 0.00 2.57 2.57 99 1021.2
20260502040332 53 188 2.0 3.0 0.00 2.57 2.57 99 1021.1
20260502035828 53 23 3.0 6.0 0.00 2.57 2.57 99 1021.2
20260502035325 53 312 5.0 6.0 0.00 2.57 2.57 99 1021.0
20260502034822 53 92 2.0 3.0 0.00 2.57 2.57 99 1021.0
20260502034321 53 58 3.0 3.0 0.00 2.57 2.57 99 1020.7
20260502033819 53 77 3.0 3.0 0.00 2.57 2.57 99 1020.9
20260502033316 53 105 1.0 1.0 0.00 2.57 2.57 99 1020.8
20260502032813 53 333 6.0 7.0 0.00 2.57 2.57 99 1020.7